Flag for Germany Weather past 2 weeks in Emmendingen, Baden-Württemberg, Germany

Now
54 °F

Scattered clouds.


Feels Like: 53 °F
Forecast: 36 / 59 °F
Wind: 3 mph from South

Location: Lahr - CAN-AFB

Current Time: Oct 23, 2014 at 2:09:42 PM

Latest Report: Oct 23, 2014 at 1:20 PM


Visibility: N/A

Pressure: 30.30 "Hg

Humidity: 63%

Dew point: 41 °F

Location of EmmendingenLocation

Historic Weather in Emmendingen — Graph

°F

Emmendingen temperature yesterday

Maximum temperature yesterday: 50 °F (at 2:50 PM)
Minimum temperature yesterday: 45 °F (at 7:50 AM)
Average temperature yesterday: 48 °F

Past Weeks' High & Low Weather Summary

 TemperatureHumidityPressure
High77 °F (Oct 19, 3:20 PM)100% (Oct 10, 8:20 AM)30.30 "Hg (Oct 10, 8:20 AM)
Low45 °F (Oct 22, 7:50 AM)47% (Oct 9, 2:50 PM)29.71 "Hg (Oct 21, 5:20 PM)
Average62 °F76%29.94 "Hg
* Reported Oct 8 11:20 AM — Oct 23 11:50 AM, Emmendingen, Weather by CustomWeather, © 2014

Note: Actual official high and low records may vary slightly from our data, if they occured in-between our weather recording intervals... More about our weather records

Advertising

Emmendingen weather history for previous 24 hours

 ConditionsComfort  
Time TempWeatherWind HumidityBarometerVisibility
11:50 AM
Oct 23
50 °FBroken clouds.7 mph76%30.30 "HgN/A
11:20 AM50 °FBroken clouds.8 mph76%30.30 "HgN/A
10:50 AM48 °FPartly sunny.8 mph82%30.30 "HgN/A
10:20 AM48 °FBroken clouds.8 mph82%30.30 "HgN/A
9:50 AM48 °FBroken clouds.7 mph82%30.30 "HgN/A
9:20 AM46 °FBroken clouds.6 mph87%30.30 "HgN/A
8:50 AM46 °FPartly cloudy.7 mph87%30.30 "HgN/A
8:20 AM46 °FPartly cloudy.7 mph87%30.27 "HgN/A
7:50 AM46 °FPassing clouds.5 mph87%30.27 "HgN/A
7:50 PM
Oct 22
48 °FPassing clouds.6 mph71%30.18 "HgN/A
7:20 PM48 °FPartly sunny.6 mph71%30.18 "HgN/A
6:50 PM48 °FPartly sunny.8 mph71%30.18 "HgN/A
5:20 PM50 °FPartly sunny.12 mph58%30.15 "HgN/A
4:50 PM50 °FPartly sunny.13 mph58%30.15 "HgN/A
4:20 PM50 °FPartly sunny.10 mph58%30.15 "HgN/A
3:50 PM50 °FPartly sunny.13 mph58%30.15 "HgN/A
3:20 PM50 °FPartly sunny.12 mph58%30.18 "HgN/A
2:50 PM50 °FPartly sunny.10 mph62%30.18 "HgN/A
2:20 PM48 °FPartly sunny.12 mph66%30.18 "HgN/A
Weather by CustomWeather, © 2014

See weather overviewHow to use our weather pages